Simultaneous Nadir Overpasses (SNOs) Predictions

Prediction of SNOs between NOAA-20 and METOP-B Satellite Orbit:

Table of predicted SNOs for the next 14.0 days since TLE Epoch: 9/10/2022
Index Date (NOAA-20) Time (NOAA-20) Lat,Lon (NOAA-20) SZA (NOAA-20 ) Date (METOP-B) Time (METOP-B) Lat,Lon (METOP-B) SZA (METOP-B ) Distance(km) Time Diff (sec)
1 09/10/2022 04:07:13 72.70, 110.10 67.80 09/10/2022 04:06:32 72.72, 110.07 67.83 2.77 41
2 09/10/2022 04:57:57 -72.71, -82.61 112.17 09/10/2022 04:57:14 -72.70, -82.64 112.18 1.92 43
3 09/10/2022 05:48:43 72.70, 84.72 67.83 09/10/2022 05:47:54 72.70, 84.68 67.83 1.34 49
4 09/10/2022 06:39:27 -72.72,-108.00 112.14 09/10/2022 06:38:35 -72.73,-107.93 112.13 2.45 52
5 09/10/2022 07:30:13 72.70, 59.34 67.86 09/10/2022 07:29:15 72.72, 59.40 67.88 2.89 58
6 09/10/2022 08:20:57 -72.72,-133.38 112.11 09/10/2022 08:19:57 -72.70,-133.32 112.13 2.92 60
7 09/10/2022 09:11:43 72.71, 33.96 67.89 09/10/2022 09:10:37 72.70, 34.01 67.89 1.97 66
8 09/10/2022 10:02:26 -72.67,-158.65 112.14 09/10/2022 10:01:19 -72.68,-158.70 112.12 1.72 67
9 09/10/2022 10:53:12 72.66, 8.68 67.86 09/10/2022 10:51:59 72.67, 8.62 67.89 2.57 73
10 09/10/2022 11:43:56 -72.68, 175.96 112.11 09/10/2022 11:42:41 -72.65, 175.91 112.12 3.15 75
11 09/10/2022 12:34:37 72.41, -16.19 67.62 09/10/2022 12:33:25 72.45, -17.18 67.71 33.58 72
12 09/10/2022 13:25:20 -72.38, 151.20 112.41 09/10/2022 13:24:08 -72.38, 150.01 112.34 39.96 72
13 09/10/2022 14:16:01 72.10, -40.97 67.32 09/10/2022 14:14:53 72.11, -43.17 67.44 75.05 68
14 09/10/2022 15:06:44 -72.07, 126.41 112.70 09/10/2022 15:05:36 -72.04, 124.03 112.61 81.57 68



Historial Predications of SNOs between NOAA-20 and METOP-B
